Weather History for Manitowoc, WI

Change the Weather History Date:

Wednesday, September 18, 2013

  Actual Average Record
Temperature  
Mean Temperature 65 °F -  
Max Temperature 71 °F 69 °F 85 °F (1963)
Min Temperature 60 °F 51 °F 38 °F (1974)
Growing Degree Days 15 (Base 50)    
Moisture  
Dew Point 60 °F    
Average Humidity 83    
Maximum Humidity 93    
Minimum Humidity 75    
Precipitation  
Precipitation 0.25 in - - ()
Sea Level Pressure  
Sea Level Pressure 30.04 in    
Wind  
Wind Speed 11 mph (South)    
Max Wind Speed 21 mph    
Max Gust Speed 28 mph    
Visibility 9 miles    
Events Rain    
Averages and records for this station are not official NWS values.
T = Trace of Precipitation, MM = Missing Value Source: NWS Daily Summary

Daily Weather History Graph

Daily Weather History Graph

Search for Another Location

Airport:

Trip Planner

Search our weather history database for the weather conditions in past years. The results will help you decide how hot, cold, wet, or windy it might be!

Date:

Astronomy

Sep. 18, 2013 Rise Set
Actual Time 6:33 AM CDT 6:55 PM CDT
Civil Twilight 6:04 AM CDT 7:24 PM CDT
Nautical Twilight 5:30 AM CDT 7:58 PM CDT
Astronomical Twilight 4:55 AM CDT 8:33 PM CDT
Moon 6:17 PM CDT 5:35 AM CDT
Length of Visible Light 13h 19m
Length of Day
12h 21m
Waxing Gibbous, 99% of the Moon is Illuminated
Sep 18
Waxing Gibbous
Sep 19
Full
Sep 26
Last Quarter
Oct 4
New
Oct 11
First Quarter

Hourly Weather History & Observations

Time (CDT) Temp. Dew Point Humidity Pressure Visibility Wind Dir Wind Speed Gust Speed Precip Events Conditions
12:56 AM 60.1 °F 55.0 °F 83% 30.17 in 10.0 mi South 8.1 mph - N/A   Clear
1:56 AM 62.1 °F 55.9 °F 80% 30.17 in 10.0 mi South 9.2 mph - N/A   Scattered Clouds
2:56 AM 64.0 °F 57.0 °F 78% 30.15 in 10.0 mi South 9.2 mph - N/A   Overcast
3:56 AM 64.0 °F 57.9 °F 80% 30.13 in 10.0 mi South 8.1 mph - N/A   Overcast
4:56 AM 64.0 °F 57.0 °F 78% 30.12 in 10.0 mi South 9.2 mph - N/A   Overcast
5:56 AM 64.9 °F 57.0 °F 75% 30.11 in 10.0 mi South 9.2 mph - 0.00 in   Overcast
6:56 AM 64.0 °F 55.9 °F 75% 30.12 in 10.0 mi South 9.2 mph - 0.00 in Rain Light Rain
7:56 AM 61.0 °F 57.0 °F 87% 30.12 in 9.0 mi South 5.8 mph - 0.15 in Rain Rain
8:56 AM 61.0 °F 57.0 °F 87% 30.12 in 10.0 mi SSW 8.1 mph - 0.04 in Rain Light Rain
9:26 AM 60.8 °F 57.2 °F 88% 30.05 in 8.0 mi South 11.5 mph - 0.01 in Rain Light Rain
9:41 AM 60.8 °F 57.2 °F 88% 30.05 in 4.0 mi South 11.5 mph - 0.04 in Rain Light Rain
9:56 AM 60.1 °F 57.9 °F 93% 30.11 in 6.0 mi South 12.7 mph - 0.06 in Rain Light Rain
10:56 AM 63.0 °F 59.0 °F 87% 30.09 in 10.0 mi South 15.0 mph - 0.00 in   Overcast
11:24 AM 64.4 °F 60.8 °F 88% 30.02 in 10.0 mi South 17.3 mph - N/A   Mostly Cloudy
11:56 AM 66.0 °F 61.0 °F 84% 30.07 in 10.0 mi South 17.3 mph 23.0 mph N/A   Mostly Cloudy
12:56 PM 66.0 °F 60.1 °F 81% 30.05 in 10.0 mi South 15.0 mph - N/A   Overcast
1:56 PM 69.1 °F 62.1 °F 78% 30.02 in 10.0 mi South 18.4 mph 25.3 mph 0.00 in   Overcast
2:56 PM 69.1 °F 63.0 °F 81% 30.00 in 10.0 mi South 16.1 mph 26.5 mph N/A   Mostly Cloudy
3:56 PM 70.0 °F 63.0 °F 78% 29.97 in 10.0 mi South 17.3 mph 24.2 mph N/A   Mostly Cloudy
4:29 PM 69.8 °F 62.6 °F 78% 29.92 in 10.0 mi South 20.7 mph 27.6 mph N/A   Mostly Cloudy
4:43 PM 69.8 °F 62.6 °F 78% 29.92 in 10.0 mi South 17.3 mph 25.3 mph N/A   Mostly Cloudy
4:56 PM 70.0 °F 63.0 °F 78% 29.96 in 10.0 mi South 17.3 mph 27.6 mph N/A   Scattered Clouds
5:56 PM 69.1 °F 63.0 °F 81% 29.95 in 10.0 mi South 18.4 mph 26.5 mph N/A   Clear
6:56 PM 68.0 °F 63.0 °F 84% 29.95 in 10.0 mi South 11.5 mph - N/A   Clear
7:56 PM 66.9 °F 63.0 °F 87% 29.96 in 9.0 mi South 10.4 mph - N/A   Clear
8:56 PM 66.9 °F 64.0 °F 90% 29.97 in 8.0 mi South 8.1 mph - N/A   Clear
9:56 PM 66.9 °F 63.0 °F 87% 29.96 in 7.0 mi South 6.9 mph - N/A   Clear
10:56 PM 66.0 °F 63.0 °F 90% 29.96 in 6.0 mi SSW 5.8 mph - N/A   Scattered Clouds
11:56 PM 68.0 °F 64.0 °F 87% 29.96 in 7.0 mi South 6.9 mph - N/A   Overcast